ROMMA est une association bénévole à but non lucratif. Votre soutien est indispensable : ADHERER à ROMMA ou FAIRE un DON

Val-d'Isère - (73, Savoie)

Haute-Maurienne (1850 m)   Longitude: 6° 58' 52'' E   Latitude: 45° 26' 53'' N Station partenaire n°93
 

Détail journalier du     <<     >>

Température Precipitation Humidité Vent Dir Rafale Dir. rafale Ensol.
Heure (°C) (mm) (%) (km/h) (km/h) (min)
01:00 -3.00927OSO16OSO0
02:00 -3.00927O23OSO0
03:00 -3.10916ONO19O0
04:00 -3.70884S15SSE0
05:00 -3.40875SSE15SE0
06:00 -3.40874E13E0
07:00 -3.40873E13O0
08:00 -2.80866OSO18OSO60
09:00 -2.80866OSO15O60
10:00 -1.60816OSO15OSO60
11:00 0.20.6684SO11O30
12:00 1.20564OSO13OSO0
13:00 2.60.2524ENE11E60
14:00 1.80578E16E60
15:00 3.005511E19E60
16:00 3.10627E21OSO60
17:00 3.306113OSO26O60
18:00 2.006712OSO24SO60
19:00 1.407015OSO24OSO30
20:00 0.707315OSO24OSO60
21:00 0.407711OSO21O0
22:00 0.307910OSO18OSO0
23:00 0.10816OSO15OSO0
minuit -0.10843ESE15O0

Graphique du 29-04-2019

 

Serveur OMMA